Simultaneous Nadir Overpasses (SNOs) Predictions

Prediction of SNOs between AQUA and NOAA-19 Satellite Orbit:

Table of predicted SNOs for the next 14.0 days since TLE Epoch: 7/27/2024
Index Date (AQUA) Time (AQUA) Lat,Lon (AQUA) SZA (AQUA ) Date (NOAA-19) Time (NOAA-19) Lat,Lon (NOAA-19) SZA (NOAA-19 ) Distance(km) Time Diff (sec)
1 07/27/2024 21:29:04 75.33,-142.71 56.32 07/27/2024 21:27:56 75.26,-144.91 56.30 62.42 68
2 07/27/2024 22:18:33 -75.72, 23.81 123.26 07/27/2024 22:18:41 -75.70, 23.79 123.29 3.09 8
3 07/30/2024 01:18:51 -75.66, -21.04 122.83 07/30/2024 01:17:37 -75.59, -21.23 122.89 9.44 74
4 07/30/2024 02:08:14 75.71, 146.48 57.23 07/30/2024 02:08:37 75.73, 146.48 57.26 2.93 23
5 08/01/2024 05:08:31 75.64, 101.64 57.69 08/01/2024 05:07:32 75.65, 101.54 57.71 2.96 59
6 08/01/2024 05:57:54 -75.73, -90.97 122.21 08/01/2024 05:58:25 -75.74, -90.89 122.20 2.45 31
7 08/03/2024 08:58:10 -75.66,-135.79 121.73 08/03/2024 08:57:20 -75.67,-135.81 121.72 0.69 50
8 08/03/2024 09:47:33 75.71, 31.71 58.34 08/03/2024 09:48:21 75.74, 31.66 58.36 2.71 48
9 08/05/2024 12:47:49 75.69, -13.26 58.89 08/05/2024 12:47:15 75.68, -13.19 58.88 2.34 34
10 08/05/2024 13:37:11 -75.73, 154.29 121.07 08/05/2024 13:38:09 -75.76, 154.34 121.04 3.10 58
11 08/07/2024 16:37:25 -75.66, 109.49 120.55 08/07/2024 16:37:04 -75.67, 109.36 120.54 3.74 21
12 08/07/2024 17:26:50 75.81, -83.32 59.62 08/07/2024 17:28:02 75.84, -82.81 59.64 14.13 72
13 08/09/2024 20:27:02 75.69,-127.96 60.10 08/09/2024 20:26:58 75.67,-128.04 60.09 2.45 4



Historial Predications of SNOs between AQUA and NOAA-19
